| time (UTC) | temp F | wind direction | speed MPH | gust MPH | rain 1hr in | rain 24hr in | rain mn in | humidity % | barometer mb |
| 20260902043516 | 75 | 225 | 2.0 | 3.0 | 0.00 | 0.00 | 0.00 | 82 | 1015.1 |
| 20260902042516 | 76 | 225 | 1.0 | 3.0 | 0.00 | 0.00 | 0.00 | 80 | 1014.9 |
| 20260902041515 | 77 | 225 | 3.0 | 4.0 | 0.00 | 0.00 | 0.00 | 78 | 1015.0 |
| 20260902040515 | 77 | 225 | 2.0 | 3.0 | 0.00 | 0.00 | 0.00 | 79 | 1015.0 |
| 20260902035516 | 77 | 248 | 2.0 | 3.0 | 0.00 | 0.00 | 0.00 | 79 | 1014.9 |
| 20260902034516 | 77 | 248 | 3.0 | 4.0 | 0.00 | 0.00 | 0.00 | 80 | 1014.9 |
| 20260902033516 | 77 | 248 | 2.0 | 3.0 | 0.00 | 0.00 | 0.00 | 79 | 1014.9 |
| 20260902032515 | 78 | 248 | 3.0 | 4.0 | 0.00 | 0.00 | 0.00 | 78 | 1014.9 |
| 20260902031517 | 78 | 225 | 3.0 | 4.0 | 0.00 | 0.00 | 0.00 | 78 | 1014.8 |
| 20260902030515 | 78 | 225 | 3.0 | 5.0 | 0.00 | 0.00 | 0.00 | 78 | 1014.6 |
| 20260902025516 | 78 | 225 | 3.0 | 4.0 | 0.00 | 0.00 | 0.00 | 79 | 1014.6 |
| 20260902024536 | 78 | 225 | 3.0 | 4.0 | 0.00 | 0.00 | 0.00 | 81 | 1014.5 |
| 20260902023535 | 78 | 225 | 2.0 | 3.0 | 0.00 | 0.00 | 0.00 | 81 | 1014.4 |
| 20260902022516 | 78 | 225 | 2.0 | 3.0 | 0.00 | 0.00 | 0.00 | 81 | 1014.5 |
| 20260902021515 | 78 | 225 | 1.0 | 3.0 | 0.00 | 0.00 | 0.00 | 82 | 1014.4 |
| 20260902020518 | 78 | 225 | 1.0 | 3.0 | 0.00 | 0.00 | 0.00 | 83 | 1014.4 |
| 20260902015517 | 78 | 0.0 | 1.0 | 0.00 | 0.00 | 0.00 | 83 | 1014.3 | |
| 20260902014517 | 78 | 0.0 | 1.0 | 0.00 | 0.00 | 0.00 | 82 | 1014.3 | |
| 20260902013518 | 78 | 0.0 | 1.0 | 0.00 | 0.00 | 0.00 | 81 | 1014.2 | |
| 20260902012518 | 78 | 0.0 | 0.0 | 0.00 | 0.00 | 0.00 | 80 | 1014.2 | |
| 20260902011517 | 78 | 0.0 | 0.0 | 0.00 | 0.00 | 0.00 | 82 | 1014.2 | |
| 20260902010517 | 78 | 0.0 | 0.0 | 0.00 | 0.00 | 0.00 | 82 | 1014.1 | |
| 20260902005518 | 79 | 0.0 | 0.0 | 0.00 | 0.00 | 0.00 | 81 | 1014.1 | |
| 20260902004517 | 80 | 0.0 | 1.0 | 0.00 | 0.00 | 0.00 | 80 | 1013.9 | |
| 20260902003517 | 80 | 0.0 | 1.0 | 0.00 | 0.00 | 0.00 | 76 | 1014.0 | |
| 20260902002517 | 81 | 225 | 1.0 | 2.0 | 0.00 | 0.00 | 0.00 | 76 | 1014.1 |
| 20260902001517 | 81 | 0.0 | 1.0 | 0.00 | 0.00 | 0.00 | 74 | 1013.9 | |
| 20260902000517 | 82 | 0.0 | 1.0 | 0.00 | 0.00 | 0.00 | 76 | 1013.7 | |
| 20260901235518 | 81 | 0.0 | 1.0 | 0.00 | 0.00 | 0.00 | 77 | 1013.6 | |
| 20260901234517 | 82 | 0.0 | 0.0 | 0.00 | 0.00 | 0.00 | 79 | 1013.6 | |
| 20260901233537 | 83 | 90 | 1.0 | 2.0 | 0.00 | 0.00 | 0.00 | 76 | 1013.3 |
| 20260901232537 | 84 | 248 | 1.0 | 1.0 | 0.00 | 0.00 | 0.00 | 69 | 1013.8 |
| 20260901231518 | 85 | 248 | 1.0 | 3.0 | 0.00 | 0.00 | 0.00 | 69 | 1013.9 |
| 20260901230518 | 87 | 248 | 2.0 | 4.0 | 0.00 | 0.00 | 0.00 | 66 | 1014.1 |
| 20260901225538 | 87 | 248 | 3.0 | 4.0 | 0.00 | 0.00 | 0.00 | 66 | 1014.1 |
| 20260901224517 | 87 | 225 | 4.0 | 6.0 | 0.00 | 0.00 | 0.00 | 65 | 1014.2 |
| 20260901223517 | 87 | 248 | 4.0 | 6.0 | 0.00 | 0.00 | 0.00 | 68 | 1014.2 |
| 20260901222537 | 88 | 225 | 4.0 | 6.0 | 0.00 | 0.00 | 0.00 | 72 | 1014.2 |
| 20260901221518 | 88 | 225 | 4.0 | 6.0 | 0.00 | 0.00 | 0.00 | 72 | 1014.2 |
| 20260901220537 | 88 | 225 | 3.0 | 6.0 | 0.00 | 0.00 | 0.00 | 72 | 1014.2 |
| 20260901215517 | 86 | 225 | 3.0 | 5.0 | 0.00 | 0.00 | 0.00 | 79 | 1014.1 |
| 20260901214517 | 83 | 225 | 4.0 | 6.0 | 0.00 | 0.00 | 0.00 | 91 | 1014.0 |
| 20260901213517 | 82 | 225 | 2.0 | 4.0 | 0.00 | 0.00 | 0.00 | 93 | 1014.0 |
| 20260901212518 | 81 | 225 | 2.0 | 3.0 | 0.00 | 0.00 | 0.00 | 92 | 1014.0 |
| 20260901211517 | 82 | 225 | 2.0 | 4.0 | 0.00 | 0.00 | 0.00 | 94 | 1014.3 |
| 20260901210518 | 82 | 225 | 2.0 | 4.0 | 0.00 | 0.00 | 0.00 | 94 | 1014.4 |
| 20260901205538 | 81 | 225 | 2.0 | 5.0 | 0.00 | 0.00 | 0.00 | 92 | 1014.3 |
| 20260901204518 | 81 | 225 | 2.0 | 5.0 | 0.00 | 0.00 | 0.00 | 91 | 1014.3 |
| 20260901203517 | 82 | 225 | 3.0 | 6.0 | 0.00 | 0.00 | 0.00 | 91 | 1014.4 |
| 20260901202517 | 82 | 248 | 1.0 | 3.0 | 0.00 | 0.00 | 0.00 | 94 | 1014.5 |
| 20260901201517 | 81 | 225 | 1.0 | 3.0 | 0.00 | 0.00 | 0.00 | 94 | 1014.6 |
| 20260901200517 | 82 | 225 | 2.0 | 4.0 | 0.00 | 0.00 | 0.00 | 94 | 1014.6 |
| 20260901195537 | 81 | 293 | 1.0 | 3.0 | 0.00 | 0.00 | 0.00 | 93 | 1014.6 |
| 20260901194517 | 82 | 0.0 | 0.0 | 0.00 | 0.00 | 0.00 | 95 | 1014.8 | |
| 20260901193517 | 81 | 225 | 1.0 | 4.0 | 0.00 | 0.00 | 0.00 | 93 | 1015.0 |
| 20260901192557 | 82 | 0.0 | 2.0 | 0.00 | 0.00 | 0.00 | 93 | 1015.1 | |
| 20260901191517 | 81 | 270 | 3.0 | 5.0 | 0.00 | 0.00 | 0.00 | 93 | 1015.0 |
| 20260901190517 | 81 | 270 | 3.0 | 5.0 | 0.00 | 0.00 | 0.00 | 92 | 1015.1 |
| 20260901185537 | 82 | 293 | 1.0 | 2.0 | 0.00 | 0.00 | 0.00 | 94 | 1015.2 |
| 20260901184517 | 82 | 0.0 | 1.0 | 0.00 | 0.00 | 0.00 | 95 | 1015.2 | |
| 20260901183557 | 81 | 248 | 1.0 | 4.0 | 0.00 | 0.00 | 0.00 | 94 | 1015.3 |
| 20260901182538 | 81 | 0.0 | 2.0 | 0.00 | 0.00 | 0.00 | 95 | 1015.5 | |
| 20260901181517 | 81 | 0.0 | 1.0 | 0.00 | 0.00 | 0.00 | 95 | 1015.4 | |
| 20260901180517 | 81 | 0.0 | 1.0 | 0.00 | 0.00 | 0.00 | 95 | 1015.6 | |
| 20260901175522 | 80 | 0.0 | 2.0 | 0.00 | 0.00 | 0.00 | 96 | 1015.6 | |
| 20260901174517 | 80 | 0.0 | 2.0 | 0.00 | 0.00 | 0.00 | 96 | 1015.7 | |
| 20260901173516 | 79 | 0.0 | 2.0 | 0.00 | 0.00 | 0.00 | 96 | 1015.8 | |
| 20260901172516 | 79 | 0.0 | 3.0 | 0.00 | 0.00 | 0.00 | 97 | 1016.2 | |
| 20260901171517 | 78 | 68 | 1.0 | 3.0 | 0.00 | 0.00 | 0.00 | 96 | 1016.2 |
| 20260901170516 | 77 | 90 | 1.0 | 3.0 | 0.00 | 0.00 | 0.00 | 98 | 1016.2 |
| 20260901165517 | 76 | 45 | 1.0 | 3.0 | 0.00 | 0.00 | 0.00 | 98 | 1016.3 |
| 20260901164517 | 76 | 0.0 | 2.0 | 0.00 | 0.00 | 0.00 | 98 | 1016.4 | |
| 20260901163536 | 76 | 0.0 | 1.0 | 0.00 | 0.00 | 0.00 | 98 | 1016.5 | |
| 20260901162517 | 76 | 45 | 1.0 | 2.0 | 0.00 | 0.00 | 0.00 | 98 | 1016.6 |
| 20260901161516 | 76 | 338 | 1.0 | 3.0 | 0.00 | 0.00 | 0.00 | 98 | 1016.7 |
| 20260901160516 | 76 | 315 | 1.0 | 3.0 | 0.00 | 0.00 | 0.00 | 98 | 1016.5 |
| 20260901155516 | 75 | 0.0 | 1.0 | 0.00 | 0.00 | 0.00 | 98 | 1016.7 | |
| 20260901154517 | 76 | 315 | 1.0 | 3.0 | 0.00 | 0.00 | 0.00 | 98 | 1016.7 |
| 20260901153517 | 76 | 315 | 1.0 | 4.0 | 0.00 | 0.00 | 0.00 | 98 | 1016.5 |
| 20260901152517 | 76 | 315 | 1.0 | 4.0 | 0.00 | 0.00 | 0.00 | 98 | 1016.6 |
| 20260901151516 | 75 | 315 | 2.0 | 4.0 | 0.00 | 0.00 | 0.00 | 98 | 1016.2 |
| 20260901150536 | 75 | 270 | 2.0 | 3.0 | 0.00 | 0.00 | 0.00 | 98 | 1016.3 |
| 20260901145517 | 75 | 270 | 1.0 | 2.0 | 0.00 | 0.00 | 0.00 | 98 | 1016.2 |
| 20260901144517 | 75 | 0.0 | 1.0 | 0.00 | 0.00 | 0.00 | 98 | 1016.2 | |
| 20260901143516 | 76 | 0.0 | 1.0 | 0.00 | 0.00 | 0.00 | 98 | 1016.2 | |
| 20260901142516 | 75 | 0.0 | 1.0 | 0.00 | 0.00 | 0.00 | 98 | 1016.2 | |
| 20260901141516 | 74 | 0.0 | 1.0 | 0.00 | 0.00 | 0.00 | 98 | 1016.1 | |
| 20260901140516 | 74 | 0.0 | 1.0 | 0.00 | 0.00 | 0.00 | 99 | 1016.1 | |
| 20260901135516 | 74 | 0.0 | 1.0 | 0.00 | 0.00 | 0.00 | 99 | 1016.1 | |
| 20260901134516 | 74 | 0.0 | 1.0 | 0.00 | 0.00 | 0.00 | 98 | 1016.2 | |
| 20260901133517 | 73 | 45 | 1.0 | 2.0 | 0.00 | 0.00 | 0.00 | 98 | 1016.1 |
| 20260901132517 | 73 | 68 | 1.0 | 4.0 | 0.00 | 0.00 | 0.00 | 98 | 1016.2 |
| 20260901131537 | 73 | 45 | 1.0 | 2.0 | 0.00 | 0.00 | 0.00 | 98 | 1016.0 |
| 20260901130516 | 72 | 68 | 1.0 | 3.0 | 0.00 | 0.00 | 0.00 | 98 | 1016.0 |
| 20260901125516 | 72 | 23 | 1.0 | 3.0 | 0.00 | 0.00 | 0.00 | 98 | 1016.2 |
| 20260901124516 | 72 | 23 | 1.0 | 2.0 | 0.00 | 0.00 | 0.00 | 98 | 1016.1 |
| 20260901123516 | 72 | 0.0 | 2.0 | 0.00 | 0.00 | 0.00 | 98 | 1015.9 | |
| 20260901122536 | 72 | 0.0 | 1.0 | 0.00 | 0.00 | 0.00 | 98 | 1016.0 | |
| 20260901121536 | 72 | 23 | 1.0 | 3.0 | 0.00 | 0.00 | 0.00 | 98 | 1015.9 |
| 20260901120516 | 71 | 0.0 | 2.0 | 0.00 | 0.00 | 0.00 | 98 | 1016.0 | |
| 20260901115516 | 71 | 0.0 | 0.0 | 0.00 | 0.00 | 0.00 | 98 | 1015.7 | |
| 20260901114516 | 71 | 0.0 | 0.0 | 0.00 | 0.00 | 0.00 | 98 | 1015.6 | |
| 20260901113517 | 71 | 0.0 | 0.0 | 0.00 | 0.00 | 0.00 | 98 | 1015.5 | |
| 20260901112516 | 70 | 0.0 | 0.0 | 0.00 | 0.00 | 0.00 | 98 | 1015.3 | |
| 20260901111519 | 70 | 0.0 | 0.0 | 0.00 | 0.00 | 0.00 | 98 | 1015.2 | |
| 20260901110519 | 70 | 0.0 | 0.0 | 0.00 | 0.00 | 0.00 | 98 | 1015.2 | |
| 20260901105516 | 70 | 0.0 | 0.0 | 0.00 | 0.00 | 0.00 | 98 | 1015.2 | |
| 20260901104537 | 70 | 0.0 | 0.0 | 0.00 | 0.00 | 0.00 | 98 | 1014.9 | |
| 20260901103516 | 70 | 0.0 | 0.0 | 0.00 | 0.00 | 0.00 | 98 | 1014.7 | |
| 20260901102516 | 70 | 0.0 | 0.0 | 0.00 | 0.00 | 0.00 | 98 | 1014.8 | |
| 20260901101520 | 71 | 0.0 | 0.0 | 0.00 | 0.00 | 0.00 | 98 | 1014.8 | |
| 20260901100516 | 71 | 0.0 | 0.0 | 0.00 | 0.00 | 0.00 | 98 | 1014.9 | |
| 20260901095518 | 71 | 0.0 | 0.0 | 0.00 | 0.00 | 0.00 | 97 | 1014.8 | |
| 20260901094537 | 71 | 0.0 | 0.0 | 0.00 | 0.00 | 0.00 | 97 | 1014.9 | |
| 20260901093536 | 72 | 0.0 | 0.0 | 0.00 | 0.02 | 0.00 | 97 | 1015.0 | |
| 20260901092516 | 72 | 0.0 | 0.0 | 0.00 | 0.02 | 0.00 | 97 | 1015.1 | |
| 20260901091516 | 72 | 0.0 | 0.0 | 0.00 | 0.02 | 0.00 | 97 | 1015.2 | |
| 20260901090516 | 72 | 0.0 | 0.0 | 0.00 | 0.03 | 0.00 | 97 | 1015.2 | |
| 20260901085516 | 72 | 0.0 | 0.0 | 0.00 | 0.03 | 0.00 | 97 | 1015.1 | |
| 20260901084516 | 72 | 0.0 | 0.0 | 0.00 | 0.03 | 0.00 | 97 | 1014.9 | |
| 20260901083518 | 72 | 0.0 | 0.0 | 0.00 | 0.03 | 0.00 | 97 | 1014.8 | |
| 20260901082516 | 72 | 0.0 | 0.0 | 0.00 | 0.03 | 0.00 | 97 | 1014.8 | |
| 20260901081517 | 73 | 0.0 | 0.0 | 0.00 | 0.03 | 0.00 | 97 | 1014.8 | |
| 20260901080536 | 72 | 0.0 | 0.0 | 0.00 | 0.03 | 0.00 | 97 | 1014.6 | |
| 20260901075535 | 73 | 0.0 | 0.0 | 0.00 | 0.03 | 0.00 | 97 | 1014.7 | |
| 20260901074532 | 73 | 0.0 | 0.0 | 0.00 | 0.03 | 0.00 | 97 | 1014.8 | |
| 20260901073516 | 73 | 0.0 | 0.0 | 0.00 | 0.03 | 0.00 | 98 | 1014.8 | |
| 20260901072536 | 73 | 0.0 | 0.0 | 0.00 | 0.03 | 0.00 | 98 | 1014.7 | |
| 20260901071516 | 72 | 0.0 | 0.0 | 0.00 | 0.03 | 0.00 | 97 | 1014.7 | |
| 20260901070537 | 72 | 0.0 | 0.0 | 0.00 | 0.03 | 0.00 | 96 | 1014.4 | |
| 20260901065516 | 72 | 0.0 | 0.0 | 0.00 | 0.03 | 0.00 | 96 | 1014.3 | |
| 20260901064516 | 73 | 0.0 | 0.0 | 0.00 | 0.03 | 0.00 | 96 | 1014.5 | |
| 20260901063516 | 73 | 0.0 | 0.0 | 0.00 | 0.03 | 0.00 | 97 | 1014.3 | |
| 20260901062515 | 73 | 0.0 | 0.0 | 0.00 | 0.03 | 0.00 | 97 | 1014.5 | |
| 20260901061535 | 73 | 0.0 | 0.0 | 0.00 | 0.03 | 0.00 | 96 | 1014.7 | |
| 20260901060515 | 73 | 0.0 | 0.0 | 0.00 | 0.03 | 0.00 | 96 | 1014.8 | |
| 20260901055556 | 74 | 0.0 | 0.0 | 0.00 | 0.03 | 0.00 | 96 | 1014.7 | |
| 20260901054515 | 73 | 0.0 | 0.0 | 0.00 | 0.03 | 0.00 | 95 | 1014.7 | |
| 20260901053516 | 74 | 0.0 | 0.0 | 0.00 | 0.03 | 0.00 | 95 | 1014.7 | |
| 20260901052516 | 74 | 0.0 | 0.0 | 0.00 | 0.03 | 0.00 | 95 | 1014.6 | |
| 20260901051535 | 75 | 0.0 | 0.0 | 0.00 | 0.22 | 0.00 | 94 | 1014.6 | |
| 20260901050515 | 75 | 0.0 | 0.0 | 0.00 | 0.30 | 0.00 | 95 | 1014.6 | |
| 20260901045516 | 75 | 0.0 | 1.0 | 0.00 | 0.30 | 0.30 | 95 | 1014.5 | |
| 20260901044516 | 75 | 0.0 | 1.0 | 0.00 | 0.30 | 0.30 | 96 | 1014.5 |